Regional Weather Roundup
Issued by NWS

Home | Current Version | Previous Version | Graphics & Text | Print | Product List | Glossary On
Versions: 1 2 3 4 5 6 7 8 9 10 11 12 13 14 15 16 17 18 19 20 21 22 23 24 25 26 27 28 29 30 31 32 33 34 35 36 37 38 39 40 41 42 43 44 45 46 47 48 49 50
000
ASUS43 KMKX 231711
RWRWI

WISCONSIN REGIONAL WEATHER ROUNDUP
NATIONAL WEATHER SERVICE MILWAUKEE/SULLIVAN WI
1200 PM CDT SAT JUL 23 2016

NOTE: "FAIR" INDICATES FEW OR NO CLOUDS BELOW 12,000 FEET WITH NO
SIGNIFICANT WEATHER AND/OR OBSTRUCTIONS TO VISIBILITY.

WIZ001-002-006>008-014>016-023>028-231800-
NORTHWEST WISCONSIN

CITY           SKY/WX    TMP DP  RH WIND       PRES   REMARKS
SUPERIOR ARPT  PTSUNNY   70  62  74 NE12      29.94R
ASHLAND        CLOUDY    83  67  58 E5        29.96R HX  85
HAYWARD        CLOUDY    81  67  62 SE8       29.98R HX  83
SIREN          CLOUDY    79  66  65 SE7       29.93S HX  81
CUMBERLAND     CLOUDY    73  66  78 SE10      29.97S
RICE LAKE      CLOUDY    77  67  72 SE9       29.98S
CHETEK         CLOUDY    77  70  78 SE8       29.98R
LADYSMITH      CLOUDY    81  69  66 S7        30.02R HX  84
EAU CLAIRE     CLOUDY    79  69  71 SW14      29.98R HX  81
MENOMONIE      CLOUDY    73  67  84 SE12      29.98F
NEW RICHMOND   CLOUDY    74  67  79 S12G25    29.93S
OSCEOLA        CLOUDY    77  68  72 S9G15     29.93F
$$

WIZ003>005-009-010-017-018-231800-
NORTH CENTRAL WISCONSIN

CITY           SKY/WX    TMP DP  RH WIND       PRES   REMARKS
MANITOWISH WTR CLOUDY    82  61  49 SE9       30.03R HX  82
ARBOR VITAE    CLOUDY    83  60  44 S7        30.03R HX  83
WOODRUFF       CLOUDY    83  60  44 S7        30.03R HX  83
RHINELANDER    CLOUDY    84  59  42 S9        30.04R HX  84
EAGLE RIVER    PTSUNNY   83  55  38 S6        30.03R HX  82
LAND O LAKES   MOSUNNY   84  54  35 SE6       30.05R HX  83
PHILLIPS       CLOUDY    82  68  63 SE6       30.00S HX  85
TOMAHAWK       CLOUDY    83  67  58 S3        30.03S HX  85
MEDFORD        CLOUDY    80  70  71 S8        30.02S HX  83
MERRILL        CLOUDY    84  66  54 SE7       30.03R HX  86
$$

WIZ029-030-035-036-043>047-231800-
CENTRAL WISCONSIN

CITY           SKY/WX    TMP DP  RH WIND       PRES   REMARKS
WAUSAU         CLOUDY    85  66  53 S7        30.00R HX  87
MOSINEE        SUNNY     82  68  61 S8        30.03R HX  85
MARSHFIELD     CLOUDY    82  69  64 S6        30.01S HX  85
STEVENS POINT  PTSUNNY   82  66  58 S6        30.01F HX  84
WAUPACA        CLOUDY    87  67  50 SE3       30.00S HX  89
WAUTOMA        CLOUDY    83  71  67 S3        30.00S HX  87
WISC RAPIDS    CLOUDY    83  67  58 S5        30.01S HX  85
CAMP DOUGLAS   PTSUNNY   79  75  89 SW5       29.99F HX  82
$$

WIZ011>013-019>022-031-037>040-048>050-231800-
NORTHEAST WISCONSIN

CITY           SKY/WX    TMP DP  RH WIND       PRES   REMARKS
ANTIGO         CLOUDY    82  61  49 CALM      30.04F HX  83
SHAWANO        CLOUDY    87  60  40 S3        30.00R HX  87
OCONTO         PTSUNNY   81  63  54 E3        30.00R HX  83
STURGEON BAY   MOSUNNY   84  63  49 SE6       30.02R HX  85
GREEN BAY      CLOUDY    86  70  58 VRB3      29.98S HX  90
MANITOWOC      CLOUDY    82  64  54 SE6       30.00S HX  83
APPLETON       PTSUNNY   84  59  42 S8        29.99R HX  84
CLINTONVILLE   PTSUNNY   86  64  48 SE6       30.00R HX  87
OSHKOSH        CLOUDY    85  70  60 S3        29.99R HX  89
$$

WIZ032>034-041-042-053>061-231800-
SOUTHWEST WISCONSIN

CITY           SKY/WX    TMP DP  RH WIND       PRES   REMARKS
LA CROSSE      TSTM      74  72  93 W9        30.02R FOG
SPARTA         LGT RAIN  74  71  89 CALM      29.99F
VIROQUA        CLOUDY    70  70 100 SE8       30.01S
BOSCOBEL       TSTM      72  70  93 S8        30.04R FOG
PRAIRIE DU CHI HVY RAIN  70  69  96 CALM      30.03R
PLATTEVILLE    CLOUDY    78  78 100 CALM      30.00R HX  81
$$

WIZ056-057-062-063-064-067-068-231800-
SOUTH CENTRAL WISCONSIN

CITY           SKY/WX    TMP DP  RH WIND       PRES   REMARKS
REEDSBURG      LGT RAIN N/A N/A N/A SW3       30.00R
BARABOO/DELLS  LGT RAIN  78  76  92 CALM      30.01R HX  81
LONE ROCK      TSTM      77  74  90 W8        30.00R FOG
MINERAL POINT  LGT RAIN  73  73 100 W3        30.03R
MADISON        CLOUDY    83  76  79 S6        29.98F HX  91
MIDDLETON      CLOUDY    82  79  89 CALM      30.00F HX  93
WATERTOWN      CLOUDY    81  80  98 CALM      29.99F HX  91
MONROE         CLOUDY    81  77  89 SE5       29.99F HX  88
JANESVILLE     PTSUNNY   86  75  70 CALM      29.98S HX  95
$$

WIZ051-052-058>065-066-070>072-231800-
SOUTHEAST WISCONSIN

CITY           SKY/WX    TMP DP  RH WIND       PRES   REMARKS
MILWAUKEE      CLOUDY    85  75  72 SE7       29.99R HX  93
WAUKESHA       MOSUNNY   84  70  61 CALM      30.01R HX  88
MILWAUKEE/TIMM SUNNY     84  72  65 E6        30.00R HX  89
RACINE         CLOUDY    82  76  81 E7        30.01R HX  89
BURLINGTON     CLOUDY    86  76  71 S3        29.99S HX  97
KENOSHA        CLOUDY    85  76  74 E9        30.00R HX  94
FOND DU LAC    PTSUNNY   89  71  55 CALM      29.98S HX  95
SHEBOYGAN      CLOUDY    81  66  60 NE5       30.00R HX  83
WEST BEND      CLOUDY    88  72  58 SE8       29.99F HX  94
JUNEAU         CLOUDY    80  77  91 SW6       30.01S HX  87
$$

LSZ147-162-231800-
LAKE SUPERIOR

STATION/POSITION TIME  TEMP    WIND        PRES    WAVE
                       AIR SEA DIR/SP/G            HT/PER
                 (UTC) (F)     (DEG/KT/KT) (MB)    (FT/S)
W MID LAKE BUOY  1650   61 59   70/ 12/ 12 1013.9F   1
DEVILS ISLAND    1600   63      60/ 13/ 15 1014.0F
SAXON HARBOR     1640   72     330/  3/  7 1014.6R
$$

LMZ867-665-643>646-231800-
LAKE MICHIGAN

STATION/POSITION TIME  TEMP    WIND        PRES    WAVE
                       AIR SEA DIR/SP/G            HT/PER
                 (UTC) (F)     (DEG/KT/KT) (MB)    (FT/S)
CHAMBERS ISLAND  1600   75      10/  6/  7 1014.9F
S GREEN BAY BUOY 1600   75 75   50/  8/ 10   N/A
N MID LAKE BUOY  1650   70 70  110/  6/  8 1014.7R   1
NORTHPORT PIER   1600   74      90/  6/  7 1014.9F
KEWAUNEE LAKESHO 1600   77      80/  2/  3 1015.1R
SHEBOYGAN LAKESH 1700   70      20/  7/  7 1016.0R
PORT WASHINGTON  1600   72      50/  4/  4 1015.9S
MILWAUKEE LAKESH 1610   73     350/  3/  3   N/A
S MID LAKE BUOY  1650   77 78  150/  4/  6 1015.1S   0
KENOSHA   LAKESH 1700   79     130/  4/  5 1015.2R
$$

TC  - TEMPERATURE IN CELSIUS
VSB - VISIBILITY IN STATUTE MILES
WCI - WIND CHILL INDEX
HX  - HEAT INDEX




USA.gov is the U.S. government's official web portal to all federal, state and local government web resources and services.